Retour au catalogue

FENGYUN 1C DEB

ActifSSO
NORAD 29913·DEBRIS·🇨🇳 China

Lancé May 10, 1999 depuis Taiyuan Satellite Launch Center

Loading…

Prochains Passages (prochaines 24 heures)

TLE

FraisSource: Space-Track

Époque: Sep 14, 2026, 10:28 UTC

1 29913U 99025HK  26257.43620515  .00000253  00000-0  17238-3 0  9991
2 29913  98.8002 253.9936 0061872 214.3146 304.8113 14.07643336  8336

Suivez FENGYUN 1C DEB en temps réel avec AllMySat

Download on the App Store